一网星座-0418星 (ONEWEB-0418 )

导读 | 星芒AI

ONEWEB-0418 是 OneWeb 卫星通信公司发射的低轨通信卫星之一,属于其全球宽带互联网星座的一部分。该卫星采用标准化设计,旨在为全球用户提供高速、低延迟的互联网服务,尤其关注偏远和农村地区。ONEWEB-0418 于 2023 年发射,运行在约 1200 公里的近地轨道,支持 Ku 和 Ka 频段通信。其部署有助于扩大 OneWeb 的网络覆盖,增强与 SpaceX Starlink 等竞争对手的市场竞争力。

基本信息
目录编号:
50493
目录名称:
ONEWEB-0418
国际标识:
2021-132AA
轨道中心:
EARTH
卫星名称:
一网星座-0418星
卫星全名:
一网星座-0418星 (ONEWEB-0418 )
卫星状态:
在轨 (已飞行1449 天)
发射日期:
2021-12-27 UTC
国别 :
英国 (GB)
星等 :
--
轨道信息
数据来源 国际轨道数据 AOE轨道数据
星历时间 2025-12-15T03:24:17+0800
23小时前
查看轨道信息
2025-12-14T22:00:00+0800
1天前
查看轨道信息
半长轴 7567.885km 7567.871km
偏心率 0.0001554 0.0001688
轨道倾角 87.918° 87.919°
近地点辐角 108.994° 115.533°
升交点赤经 12.070° 12.114°
平近点角 251.136° 256.145°
近地点 1188.573km 1188.458km
远地点 1190.927km 1191.014km
周期 109.200分钟 109.199分钟
每日圈数 13.186848 13.186884
详细信息
平衡模式:
三轴稳定
覆盖范围:
全球
运营商:
一网卫星公司
运营商所在国:
英国
制造商(研发单位):
一网卫星公司
制造商所在国:
英国
使用方式:
暂无
卫星简介
OneWeb卫星网络由648颗重约125公斤的微型卫星组成,运行在1200公里的轨道上。 每颗卫星都能够提供至少每秒8千兆位的吞吐量,以使用其高吞吐量的Ku频段有效载荷为家庭和移动平台提供互联网接入。该卫星仍在工作。
2D轨道图
3D轨道图
轨道高度分析图
轨道倾角分析图
轨道综合分析图
查看轨道综合分析图